Location: Palo Alto
(37.4420°N, 122.1420°W)
Time: 23:00:45
(UTC-07:00)

ARGOS - Visible Passes

Search period start: 29 August 2015 00:00
Search period end: 08 September 2015 00:00
Orbit: 821 x 834 km, 98.7° (Epoch: 29 August)

Date Brightness Start Highest point End Pass type
(mag) Time Alt. Az. Time Alt. Az. Time Alt. Az.
29 Aug 5.2 21:01:56 11° ENE 21:02:22 11° ENE 21:03:51 10° NE visible
29 Aug 3.9 22:43:28 49° N 22:43:28 49° N 22:47:22 10° NNW visible
30 Aug 3.8 22:24:50 45° NNE 22:24:50 45° NNE 22:28:47 10° N visible
31 Aug 5.8 00:06:22 12° WNW 00:06:22 12° WNW 00:07:13 10° NW visible
31 Aug 4.1 22:06:13 35° NE 22:06:13 35° NE 22:10:05 10° N visible
31 Aug 5.5 23:47:44 18° WNW 23:47:44 18° WNW 23:49:40 10° NW visible
01 Sep 4.4 21:47:35 26° NE 21:47:35 26° NE 21:51:13 10° N visible
01 Sep 5.1 23:29:07 24° NW 23:29:07 24° NW 23:31:41 10° NNW visible
02 Sep 4.8 21:28:58 19° NE 21:28:58 19° NE 21:32:06 10° NNE visible
02 Sep 4.7 23:10:30 31° NW 23:10:30 31° NW 23:13:29 10° NNW visible
03 Sep 5.1 21:10:21 13° ENE 21:10:21 13° ENE 21:12:32 10° NE visible
03 Sep 4.4 22:51:52 37° NNW 22:51:52 37° NNW 22:55:06 10° NNW visible
04 Sep 4.3 22:33:15 38° N 22:33:15 38° N 22:36:35 10° N visible
05 Sep 4.3 22:14:38 34° NNE 22:14:38 34° NNE 22:17:56 10° N visible
05 Sep 5.8 23:56:10 13° NW 23:56:10 13° NW 23:57:05 10° NW visible
06 Sep 4.5 21:56:01 27° NE 21:56:01 27° NE 21:59:08 10° N visible
06 Sep 5.5 23:37:33 18° NW 23:37:33 18° NW 23:39:15 10° NW visible
07 Sep 4.8 21:37:24 20° NE 21:37:24 20° NE 21:40:09 10° NNE visible
07 Sep 5.2 23:18:55 23° NW 23:18:55 23° NW 23:21:07 10° NNW visible
